Location: Unspecified
(37.6100°N, 2.7800°W)
Time: 05:08:58
(UTC+00:00)

Tiangong 2 - Visible Passes

Search period start: 27 May 2019 00:00
Search period end: 06 June 2019 00:00
Orbit: 379 x 387 km, 42.8° (Epoch: 26 May)

Date Brightness Start Highest point End Pass type
(mag) Time Alt. Az. Time Alt. Az. Time Alt. Az.
27 May 2.6 20:23:00 10° WNW 20:25:53 32° N 20:28:46 10° ENE visible
27 May 3.1 21:59:39 10° WNW 22:01:10 26° WNW 22:01:10 26° WNW visible
28 May 1.4 20:59:38 10° WNW 21:02:44 59° NNE 21:03:43 37° E visible
29 May 2.1 19:59:37 10° WNW 20:02:36 40° NNE 20:05:35 10° E visible
29 May 2.4 21:36:19 10° WNW 21:38:25 33° WSW 21:38:25 33° WSW visible
30 May 1.0 20:36:11 10° WNW 20:39:19 86° SSW 20:40:58 25° ESE visible
31 May 2.5 21:13:09 10° W 21:15:44 25° SW 21:15:44 25° SW visible
01 Jun 1.6 20:12:48 10° WNW 20:15:50 47° SSW 20:18:21 14° SE visible
02 Jun 3.4 20:50:26 10° WSW 20:52:09 14° SW 20:53:11 12° SSW visible
